Year,Month,Day,Hour,Minute,Value (Times are PST for temperature in C)
2014,12,10,00,00,12.50
2014,12,10,00,01,12.50
2014,12,10,00,02,12.50
2014,12,10,00,03,12.60
2014,12,10,00,04,12.60
2014,12,10,00,05,12.50
2014,12,10,00,06,12.50
2014,12,10,00,07,12.50
2014,12,10,00,08,12.50
2014,12,10,00,09,12.40
2014,12,10,00,10,12.40
2014,12,10,00,11,12.40
2014,12,10,00,12,12.40
2014,12,10,00,13,12.30
2014,12,10,00,14,12.30
2014,12,10,00,15,12.30
2014,12,10,00,16,12.30
2014,12,10,00,17,12.30
2014,12,10,00,18,12.30
2014,12,10,00,19,12.30
2014,12,10,00,20,12.30
2014,12,10,00,21,12.20
2014,12,10,00,22,12.20
2014,12,10,00,23,12.20
2014,12,10,00,24,12.20
2014,12,10,00,25,12.20
2014,12,10,00,26,12.20
2014,12,10,00,27,12.20
2014,12,10,00,28,12.20
2014,12,10,00,29,12.20
2014,12,10,00,30,12.20
2014,12,10,00,31,12.20
2014,12,10,00,32,12.20
2014,12,10,00,33,12.20
2014,12,10,00,34,12.20
2014,12,10,00,35,12.20
2014,12,10,00,36,12.10
2014,12,10,00,37,12.10
2014,12,10,00,38,12.10
2014,12,10,00,39,12.10
2014,12,10,00,40,12.10
2014,12,10,00,41,12.10
2014,12,10,00,42,12.10
2014,12,10,00,43,12.10
2014,12,10,00,44,12.10
2014,12,10,00,45,12.10
2014,12,10,00,46,12.10
2014,12,10,00,47,12.10
2014,12,10,00,48,12.10
2014,12,10,00,49,12.10
2014,12,10,00,50,12.00
2014,12,10,00,51,12.00
2014,12,10,00,52,12.00
2014,12,10,00,53,11.90
2014,12,10,00,54,11.90
2014,12,10,00,55,11.80
2014,12,10,00,56,11.80
2014,12,10,00,57,11.80
2014,12,10,00,58,11.80
2014,12,10,00,59,11.70
2014,12,10,01,00,11.70
2014,12,10,01,01,11.70
2014,12,10,01,02,11.60
2014,12,10,01,03,11.60
2014,12,10,01,04,11.60
2014,12,10,01,05,11.60
2014,12,10,01,06,11.50
2014,12,10,01,07,11.50
2014,12,10,01,08,11.50
2014,12,10,01,09,11.50
2014,12,10,01,10,11.50
2014,12,10,01,11,11.40
2014,12,10,01,12,11.40
2014,12,10,01,13,11.40
2014,12,10,01,14,11.40
2014,12,10,01,15,11.40
2014,12,10,01,16,11.30
2014,12,10,01,17,11.30
2014,12,10,01,18,11.30
2014,12,10,01,19,11.30
2014,12,10,01,20,11.30
2014,12,10,01,21,11.30
2014,12,10,01,22,11.20
2014,12,10,01,23,11.20
2014,12,10,01,24,11.20
2014,12,10,01,25,11.20
2014,12,10,01,26,11.20
2014,12,10,01,27,11.20
2014,12,10,01,28,11.20
2014,12,10,01,29,11.10
2014,12,10,01,30,11.10
2014,12,10,01,31,11.10
2014,12,10,01,32,11.10
2014,12,10,01,33,11.10
2014,12,10,01,34,11.10
2014,12,10,01,35,11.10
2014,12,10,01,36,11.10
2014,12,10,01,37,11.00
2014,12,10,01,38,11.00
2014,12,10,01,39,11.00
2014,12,10,01,40,11.00
2014,12,10,01,41,11.00
2014,12,10,01,42,11.00
2014,12,10,01,43,11.00
2014,12,10,01,44,11.00
2014,12,10,01,45,11.00
2014,12,10,01,46,11.00
2014,12,10,01,47,11.00
2014,12,10,01,48,11.10
2014,12,10,01,49,11.10
2014,12,10,01,50,11.10
2014,12,10,01,51,11.10
2014,12,10,01,52,11.10
2014,12,10,01,53,11.10
2014,12,10,01,54,11.10
2014,12,10,01,55,11.10
2014,12,10,01,56,11.10
2014,12,10,01,57,11.10
2014,12,10,01,58,11.10
2014,12,10,01,59,11.10
2014,12,10,02,00,11.10
2014,12,10,02,01,11.10
2014,12,10,02,02,11.10
2014,12,10,02,03,11.20
2014,12,10,02,04,11.10
2014,12,10,02,05,11.20
2014,12,10,02,06,11.20
2014,12,10,02,07,11.20
2014,12,10,02,08,11.20
2014,12,10,02,09,11.20
2014,12,10,02,10,11.20
2014,12,10,02,11,11.20
2014,12,10,02,12,11.20
2014,12,10,02,13,11.20
2014,12,10,02,14,11.20
2014,12,10,02,15,11.20
2014,12,10,02,16,11.20
2014,12,10,02,17,11.20
2014,12,10,02,18,11.20
2014,12,10,02,19,11.20
2014,12,10,02,20,11.20
2014,12,10,02,21,11.20
2014,12,10,02,22,11.20
2014,12,10,02,23,11.30
2014,12,10,02,24,11.30
2014,12,10,02,25,11.30
2014,12,10,02,26,11.30
2014,12,10,02,27,11.30
2014,12,10,02,28,11.30
2014,12,10,02,29,11.30
2014,12,10,02,30,11.30
2014,12,10,02,31,11.30
2014,12,10,02,32,11.30
2014,12,10,02,33,11.30
2014,12,10,02,34,11.30
2014,12,10,02,35,11.30
2014,12,10,02,36,11.30
2014,12,10,02,37,11.30
2014,12,10,02,38,11.30
2014,12,10,02,39,11.30
2014,12,10,02,40,11.40
2014,12,10,02,41,11.40
2014,12,10,02,42,11.40
2014,12,10,02,43,11.40
2014,12,10,02,44,11.40
2014,12,10,02,45,11.40
2014,12,10,02,46,11.40
2014,12,10,02,47,11.40
2014,12,10,02,48,11.50
2014,12,10,02,49,11.50
2014,12,10,02,50,11.60
2014,12,10,02,51,11.60
2014,12,10,02,52,11.60
2014,12,10,02,53,11.60
2014,12,10,02,54,11.60
2014,12,10,02,55,11.60
2014,12,10,02,56,11.60
2014,12,10,02,57,11.60
2014,12,10,02,58,11.60
2014,12,10,02,59,11.60
2014,12,10,03,00,11.60
2014,12,10,03,01,11.60
2014,12,10,03,02,11.60
2014,12,10,03,03,11.60
2014,12,10,03,04,11.60
2014,12,10,03,05,11.60
2014,12,10,03,06,11.60
2014,12,10,03,07,11.70
2014,12,10,03,08,11.70
2014,12,10,03,09,11.70
2014,12,10,03,10,11.70
2014,12,10,03,11,11.70
2014,12,10,03,12,11.70
2014,12,10,03,13,11.70
2014,12,10,03,14,11.70
2014,12,10,03,15,11.70
2014,12,10,03,16,11.70
2014,12,10,03,17,11.70
2014,12,10,03,18,11.70
2014,12,10,03,19,11.60
2014,12,10,03,20,11.60
2014,12,10,03,21,11.60
2014,12,10,03,22,11.60
2014,12,10,03,23,11.60
2014,12,10,03,24,11.60
2014,12,10,03,25,11.60
2014,12,10,03,26,11.60
2014,12,10,03,27,11.60
2014,12,10,03,28,11.60
2014,12,10,03,29,11.60
2014,12,10,03,30,11.60
2014,12,10,03,31,11.60
2014,12,10,03,32,11.60
2014,12,10,03,33,11.60
2014,12,10,03,34,11.60
2014,12,10,03,35,11.60
2014,12,10,03,36,11.60
2014,12,10,03,37,11.60
2014,12,10,03,38,11.60
2014,12,10,03,39,11.60
2014,12,10,03,40,11.60
2014,12,10,03,41,11.60
2014,12,10,03,42,11.60
2014,12,10,03,43,11.60
2014,12,10,03,44,11.60
2014,12,10,03,45,11.60
2014,12,10,03,46,11.60
2014,12,10,03,47,11.60
2014,12,10,03,48,11.60
2014,12,10,03,49,11.60
2014,12,10,03,50,11.60
2014,12,10,03,51,11.60
2014,12,10,03,52,11.60
2014,12,10,03,53,11.50
2014,12,10,03,54,11.50
2014,12,10,03,55,11.50
2014,12,10,03,56,11.50
2014,12,10,03,57,11.50
2014,12,10,03,58,11.40
2014,12,10,03,59,11.40
2014,12,10,04,00,11.40
2014,12,10,04,01,11.40
2014,12,10,04,02,11.40
2014,12,10,04,03,11.40
2014,12,10,04,04,11.40
2014,12,10,04,05,11.40
2014,12,10,04,06,11.40
2014,12,10,04,07,11.40
2014,12,10,04,08,11.40
2014,12,10,04,09,11.40
2014,12,10,04,10,11.40
2014,12,10,04,11,11.40
2014,12,10,04,12,11.40
2014,12,10,04,13,11.40
2014,12,10,04,14,11.50
2014,12,10,04,15,11.50
2014,12,10,04,16,11.50
2014,12,10,04,17,11.50
2014,12,10,04,18,11.60
2014,12,10,04,19,11.50
2014,12,10,04,20,11.60
2014,12,10,04,21,11.60
2014,12,10,04,22,11.60
2014,12,10,04,23,11.60
2014,12,10,04,24,11.60
2014,12,10,04,25,11.60
2014,12,10,04,26,11.60
2014,12,10,04,27,11.60
2014,12,10,04,28,11.60
2014,12,10,04,29,11.50
2014,12,10,04,30,11.50
2014,12,10,04,31,11.60
2014,12,10,04,32,11.60
2014,12,10,04,33,11.60
2014,12,10,04,34,11.60
2014,12,10,04,35,11.60
2014,12,10,04,36,11.50
2014,12,10,04,37,11.50
2014,12,10,04,38,11.50
2014,12,10,04,39,11.50
2014,12,10,04,40,11.50
2014,12,10,04,41,11.50
2014,12,10,04,42,11.50
2014,12,10,04,43,11.50
2014,12,10,04,44,11.50
2014,12,10,04,45,11.50
2014,12,10,04,46,11.50
2014,12,10,04,47,11.40
2014,12,10,04,48,11.40
2014,12,10,04,49,11.50
2014,12,10,04,50,11.50
2014,12,10,04,51,11.50
2014,12,10,04,52,11.50
2014,12,10,04,53,11.50
2014,12,10,04,54,11.50
2014,12,10,04,55,11.50
2014,12,10,04,56,11.60
2014,12,10,04,57,11.60
2014,12,10,04,58,11.60
2014,12,10,04,59,11.60
2014,12,10,05,00,11.60
2014,12,10,05,01,11.60
2014,12,10,05,02,11.60
2014,12,10,05,03,11.60
2014,12,10,05,04,11.70
2014,12,10,05,05,11.70
2014,12,10,05,06,11.70
2014,12,10,05,07,11.70
2014,12,10,05,08,11.70
2014,12,10,05,09,11.70
2014,12,10,05,10,11.70
2014,12,10,05,11,11.70
2014,12,10,05,12,11.70
2014,12,10,05,13,11.80
2014,12,10,05,14,11.80
2014,12,10,05,15,11.80
2014,12,10,05,16,11.80
2014,12,10,05,17,11.90
2014,12,10,05,18,11.90
2014,12,10,05,19,11.90
2014,12,10,05,20,11.90
2014,12,10,05,21,11.90
2014,12,10,05,22,11.90
2014,12,10,05,23,12.00
2014,12,10,05,24,12.00
2014,12,10,05,25,12.00
2014,12,10,05,26,12.10
2014,12,10,05,27,12.10
2014,12,10,05,28,12.10
2014,12,10,05,29,12.10
2014,12,10,05,30,12.20
2014,12,10,05,31,12.20
2014,12,10,05,32,12.20
2014,12,10,05,33,12.20
2014,12,10,05,34,12.20
2014,12,10,05,35,12.20
2014,12,10,05,36,12.20
2014,12,10,05,37,12.30
2014,12,10,05,38,12.30
2014,12,10,05,39,12.30
2014,12,10,05,40,12.30
2014,12,10,05,41,12.30
2014,12,10,05,42,12.30
2014,12,10,05,43,12.30
2014,12,10,05,44,12.40
2014,12,10,05,45,12.40
2014,12,10,05,46,12.40
2014,12,10,05,47,12.50
2014,12,10,05,48,12.50
2014,12,10,05,49,12.50
2014,12,10,05,50,12.50
2014,12,10,05,51,12.50
2014,12,10,05,52,12.50
2014,12,10,05,53,12.60
2014,12,10,05,54,12.60
2014,12,10,05,55,12.60
2014,12,10,05,56,12.60
2014,12,10,05,57,12.60
2014,12,10,05,58,12.60
2014,12,10,05,59,12.60
2014,12,10,06,00,12.60
2014,12,10,06,01,12.70
2014,12,10,06,02,12.70
2014,12,10,06,03,12.70
2014,12,10,06,04,12.80
2014,12,10,06,05,12.80
2014,12,10,06,06,12.80
2014,12,10,06,07,12.90
2014,12,10,06,08,12.90
2014,12,10,06,09,12.90
2014,12,10,06,10,12.90
2014,12,10,06,11,12.90
2014,12,10,06,12,13.00
2014,12,10,06,13,13.00
2014,12,10,06,14,13.00
2014,12,10,06,15,13.00
2014,12,10,06,16,13.00
2014,12,10,06,17,13.10
2014,12,10,06,18,13.00
2014,12,10,06,19,13.10
2014,12,10,06,20,13.00
2014,12,10,06,21,13.00
2014,12,10,06,22,13.00
2014,12,10,06,23,13.00
2014,12,10,06,24,13.00
2014,12,10,06,25,13.00
2014,12,10,06,26,13.00
2014,12,10,06,27,13.10
2014,12,10,06,28,13.10
2014,12,10,06,29,13.10
2014,12,10,06,30,13.10
2014,12,10,06,31,13.10
2014,12,10,06,32,13.10
2014,12,10,06,33,13.20
2014,12,10,06,34,13.20
2014,12,10,06,35,13.20
2014,12,10,06,36,13.10
2014,12,10,06,37,13.20
2014,12,10,06,38,13.20
2014,12,10,06,39,13.20
2014,12,10,06,40,13.20
2014,12,10,06,41,13.20
2014,12,10,06,42,13.20
2014,12,10,06,43,13.10
2014,12,10,06,44,13.20
2014,12,10,06,45,13.10
2014,12,10,06,46,13.10
2014,12,10,06,47,13.10
2014,12,10,06,48,13.10
2014,12,10,06,49,13.10
2014,12,10,06,50,13.10
2014,12,10,06,51,13.10
2014,12,10,06,52,13.10
2014,12,10,06,53,13.10
2014,12,10,06,54,13.20
2014,12,10,06,55,13.20
2014,12,10,06,56,13.20
2014,12,10,06,57,13.20
2014,12,10,06,58,13.20
2014,12,10,06,59,13.20
2014,12,10,07,00,13.30
2014,12,10,07,01,13.30
2014,12,10,07,02,13.30
2014,12,10,07,03,13.30
2014,12,10,07,04,13.30
2014,12,10,07,05,13.30
2014,12,10,07,06,13.30
2014,12,10,07,07,13.30
2014,12,10,07,08,13.40
2014,12,10,07,09,13.30
2014,12,10,07,10,13.40
2014,12,10,07,11,13.40
2014,12,10,07,12,13.40
2014,12,10,07,13,13.40
2014,12,10,07,14,13.40
2014,12,10,07,15,13.50
2014,12,10,07,16,13.50
2014,12,10,07,17,13.50
2014,12,10,07,18,13.50
2014,12,10,07,19,13.50
2014,12,10,07,20,13.50
2014,12,10,07,21,13.50
2014,12,10,07,22,13.50
2014,12,10,07,23,13.50
2014,12,10,07,24,13.50
2014,12,10,07,25,13.50
2014,12,10,07,26,13.50
2014,12,10,07,27,13.50
2014,12,10,07,28,13.60
2014,12,10,07,29,13.60
2014,12,10,07,30,13.60
2014,12,10,07,31,13.60
2014,12,10,07,32,13.60
2014,12,10,07,33,13.60
2014,12,10,07,34,13.60
2014,12,10,07,35,13.60
2014,12,10,07,36,13.60
2014,12,10,07,37,13.60
2014,12,10,07,38,13.60
2014,12,10,07,39,13.60
2014,12,10,07,40,13.60
2014,12,10,07,41,13.60
2014,12,10,07,42,13.60
2014,12,10,07,43,13.60
2014,12,10,07,44,13.60
2014,12,10,07,45,13.60
2014,12,10,07,46,13.60
2014,12,10,07,47,13.60
2014,12,10,07,48,13.60
2014,12,10,07,49,13.60
2014,12,10,07,50,13.60
2014,12,10,07,51,13.60
2014,12,10,07,52,13.60
2014,12,10,07,53,13.60
2014,12,10,07,54,13.50
2014,12,10,07,55,13.50
2014,12,10,07,56,13.50
2014,12,10,07,57,13.40
2014,12,10,07,58,13.40
2014,12,10,07,59,13.40
2014,12,10,08,00,13.40
2014,12,10,08,01,13.40
2014,12,10,08,02,13.40
2014,12,10,08,03,13.30
2014,12,10,08,04,13.30
2014,12,10,08,05,13.30
2014,12,10,08,06,13.30
2014,12,10,08,07,13.30
2014,12,10,08,08,13.30
2014,12,10,08,09,13.30
2014,12,10,08,10,13.20
2014,12,10,08,11,13.20
2014,12,10,08,12,13.20
2014,12,10,08,13,13.20
2014,12,10,08,14,13.20
2014,12,10,08,15,13.20
2014,12,10,08,16,13.20
2014,12,10,08,17,13.20
2014,12,10,08,18,13.20
2014,12,10,08,19,13.20
2014,12,10,08,20,13.20
2014,12,10,08,21,13.10
2014,12,10,08,22,13.10
2014,12,10,08,23,13.10
2014,12,10,08,24,13.10
2014,12,10,08,25,13.10
2014,12,10,08,26,13.10
2014,12,10,08,27,13.10
2014,12,10,08,28,13.00
2014,12,10,08,29,13.00
2014,12,10,08,30,13.00
2014,12,10,08,31,13.00
2014,12,10,08,32,12.90
2014,12,10,08,33,12.90
2014,12,10,08,34,12.90
2014,12,10,08,35,12.90
2014,12,10,08,36,12.90
2014,12,10,08,37,12.80
2014,12,10,08,38,12.90
2014,12,10,08,39,12.90
2014,12,10,08,40,12.90
2014,12,10,08,41,12.90
2014,12,10,08,42,12.90
2014,12,10,08,43,13.00
2014,12,10,08,44,13.00
2014,12,10,08,45,13.00
2014,12,10,08,46,13.10
2014,12,10,08,47,13.10
2014,12,10,08,48,13.10
2014,12,10,08,49,13.10
2014,12,10,08,50,13.10
2014,12,10,08,51,13.10
2014,12,10,08,52,13.10
2014,12,10,08,53,13.10
2014,12,10,08,54,13.10
2014,12,10,08,55,13.10
2014,12,10,08,56,13.10
2014,12,10,08,57,13.10
2014,12,10,08,58,13.10
2014,12,10,08,59,13.10
2014,12,10,09,00,13.10
2014,12,10,09,01,13.00
2014,12,10,09,02,13.00
2014,12,10,09,03,13.00
2014,12,10,09,04,12.90
2014,12,10,09,05,12.90
2014,12,10,09,06,12.90
2014,12,10,09,07,12.90
2014,12,10,09,08,12.90
2014,12,10,09,09,12.90
2014,12,10,09,10,12.90
2014,12,10,09,11,12.90
2014,12,10,09,12,12.90
2014,12,10,09,13,12.90
2014,12,10,09,14,12.90
2014,12,10,09,15,12.90
2014,12,10,09,16,12.90
2014,12,10,09,17,12.90
2014,12,10,09,18,12.90
2014,12,10,09,19,12.90
2014,12,10,09,20,12.90
2014,12,10,09,21,12.90
2014,12,10,09,22,12.90
2014,12,10,09,23,12.90
2014,12,10,09,24,12.90
2014,12,10,09,25,13.00
2014,12,10,09,26,13.00
2014,12,10,09,27,13.00
2014,12,10,09,28,13.00
2014,12,10,09,29,13.10
2014,12,10,09,30,13.10
2014,12,10,09,31,13.10
2014,12,10,09,32,13.20
2014,12,10,09,33,13.30
2014,12,10,09,34,13.30
2014,12,10,09,35,13.40
2014,12,10,09,36,13.40
2014,12,10,09,37,13.40
2014,12,10,09,38,13.40
2014,12,10,09,39,13.40
2014,12,10,09,40,13.40
2014,12,10,09,41,13.40
2014,12,10,09,42,13.40
2014,12,10,09,43,13.30
2014,12,10,09,44,13.30
2014,12,10,09,45,13.30
2014,12,10,09,46,13.30
2014,12,10,09,47,13.30
2014,12,10,09,48,13.30
2014,12,10,09,49,13.30
2014,12,10,09,50,13.30
2014,12,10,09,51,13.30
2014,12,10,09,52,13.30
2014,12,10,09,53,13.30
2014,12,10,09,54,13.30
2014,12,10,09,55,13.30
2014,12,10,09,56,13.30
2014,12,10,09,57,13.30
2014,12,10,09,58,13.30
2014,12,10,09,59,13.20
2014,12,10,10,00,13.20
2014,12,10,10,01,13.20
2014,12,10,10,02,13.20
2014,12,10,10,03,13.20
2014,12,10,10,04,13.20
2014,12,10,10,05,13.20
2014,12,10,10,06,13.20
2014,12,10,10,07,13.20
2014,12,10,10,08,13.20
2014,12,10,10,09,13.20
2014,12,10,10,10,13.20
2014,12,10,10,11,13.20
2014,12,10,10,12,13.20
2014,12,10,10,13,13.10
2014,12,10,10,14,13.10
2014,12,10,10,15,13.10
2014,12,10,10,16,13.10
2014,12,10,10,17,13.10
2014,12,10,10,18,13.10
2014,12,10,10,19,13.10
2014,12,10,10,20,13.10
2014,12,10,10,21,13.10
2014,12,10,10,22,13.10
2014,12,10,10,23,13.10
2014,12,10,10,24,13.10
2014,12,10,10,25,13.10
2014,12,10,10,26,13.10
2014,12,10,10,27,13.10
2014,12,10,10,28,13.10
2014,12,10,10,29,13.10
2014,12,10,10,30,13.10
2014,12,10,10,31,13.10
2014,12,10,10,32,13.10
2014,12,10,10,33,13.10
2014,12,10,10,34,13.10
2014,12,10,12,49,13.00
2014,12,10,12,50,13.00
2014,12,10,12,51,13.00
2014,12,10,12,52,13.00
2014,12,10,12,53,13.00
2014,12,10,12,54,13.00
2014,12,10,12,55,13.00
2014,12,10,12,56,12.90
2014,12,10,12,57,12.90
2014,12,10,12,58,13.00
2014,12,10,12,59,12.90
2014,12,10,13,00,13.00
2014,12,10,13,01,13.00
2014,12,10,13,02,13.00
2014,12,10,13,03,13.00
2014,12,10,13,04,13.00
2014,12,10,13,05,13.00
2014,12,10,13,06,13.00
2014,12,10,13,07,13.00
2014,12,10,13,08,13.00
2014,12,10,13,09,13.00
2014,12,10,13,10,12.90
2014,12,10,13,11,12.90
2014,12,10,13,12,12.90
2014,12,10,13,13,12.90
2014,12,10,13,14,12.90
2014,12,10,13,15,12.90
2014,12,10,13,16,12.90
2014,12,10,13,17,12.90
2014,12,10,13,18,12.90
2014,12,10,13,19,12.90
2014,12,10,13,20,12.90
2014,12,10,13,21,12.90
2014,12,10,13,22,12.90
2014,12,10,13,23,12.90
2014,12,10,13,24,12.90
2014,12,10,13,25,12.90
2014,12,10,13,26,12.90
2014,12,10,13,27,12.90
2014,12,10,13,28,12.90
2014,12,10,13,29,12.90
2014,12,10,13,30,12.80
2014,12,10,13,31,12.80
2014,12,10,13,32,12.80
2014,12,10,13,33,12.80
2014,12,10,13,34,12.80
2014,12,10,13,35,12.80
2014,12,10,13,36,12.80
2014,12,10,13,37,12.80
2014,12,10,13,38,12.80
2014,12,10,13,39,12.80
2014,12,10,13,40,12.80
2014,12,10,13,41,12.80
2014,12,10,13,42,12.80
2014,12,10,13,43,12.80
2014,12,10,14,17,12.70
2014,12,10,14,18,12.70
2014,12,10,14,19,12.70
2014,12,10,14,20,12.70
2014,12,10,14,21,12.70
2014,12,10,14,22,12.70
2014,12,10,14,23,12.70
2014,12,10,14,24,12.70
2014,12,10,14,25,12.70
2014,12,10,14,26,12.70
2014,12,10,14,27,12.70
2014,12,10,14,28,12.70
2014,12,10,14,29,12.70
2014,12,10,14,30,12.80
2014,12,10,14,31,12.80
2014,12,10,14,32,12.80
2014,12,10,14,33,12.80
2014,12,10,14,34,12.80
2014,12,10,14,35,12.80
2014,12,10,14,36,12.70
2014,12,10,14,37,12.70
2014,12,10,14,38,12.80
2014,12,10,14,39,12.80
2014,12,10,14,40,12.80
2014,12,10,14,41,12.80
2014,12,10,14,42,12.80
2014,12,10,14,43,12.80
2014,12,10,14,44,12.80
2014,12,10,14,45,12.80
2014,12,10,14,46,12.80
2014,12,10,14,47,12.70
2014,12,10,14,48,12.70
2014,12,10,14,49,12.70
2014,12,10,14,50,12.70
2014,12,10,14,51,12.70
2014,12,10,14,52,12.70
2014,12,10,14,53,12.70
2014,12,10,14,54,12.70
2014,12,10,14,55,12.70
2014,12,10,14,56,12.70
2014,12,10,14,57,12.80
2014,12,10,14,58,12.80
2014,12,10,14,59,12.80
2014,12,10,15,00,12.80
2014,12,10,15,01,12.80
2014,12,10,15,02,12.80
2014,12,10,15,03,12.80
2014,12,10,15,04,12.80
2014,12,10,15,05,12.80
2014,12,10,15,06,12.80
2014,12,10,15,07,12.80
2014,12,10,18,13,11.20
2014,12,10,18,14,11.20
2014,12,10,18,15,11.20
2014,12,10,18,16,11.20
2014,12,10,18,17,11.20
2014,12,10,18,18,11.20
2014,12,10,18,19,11.20
2014,12,10,18,20,11.20
2014,12,10,18,21,11.20
2014,12,10,18,22,11.20
2014,12,10,18,23,11.20
2014,12,10,18,24,11.20
2014,12,10,18,25,11.20
2014,12,10,18,26,11.20
2014,12,10,18,27,11.20
2014,12,10,18,28,11.20
2014,12,10,18,29,11.20
2014,12,10,18,30,11.20
2014,12,10,18,31,11.20
2014,12,10,18,32,11.20
2014,12,10,18,33,11.20
2014,12,10,18,34,11.20
2014,12,10,18,35,11.20
2014,12,10,18,36,11.20
2014,12,10,18,37,11.20
2014,12,10,18,38,11.20
2014,12,10,18,39,11.30
2014,12,10,18,40,11.30
2014,12,10,18,41,11.20
2014,12,10,18,42,11.20
2014,12,10,18,43,11.20
2014,12,10,18,44,11.20
2014,12,10,18,45,11.20
2014,12,10,18,46,11.20
2014,12,10,18,47,11.20
2014,12,10,18,48,11.30
2014,12,10,18,49,11.30
2014,12,10,18,50,11.30
2014,12,10,18,51,11.30
2014,12,10,18,52,11.30
2014,12,10,18,53,11.30
2014,12,10,18,54,11.30
2014,12,10,18,55,11.30
2014,12,10,18,56,11.20
2014,12,10,18,57,11.20
2014,12,10,18,58,11.20
2014,12,10,18,59,11.20
2014,12,10,19,00,11.20
2014,12,10,19,01,11.20
2014,12,10,19,02,11.20
2014,12,10,19,03,11.20
2014,12,10,19,04,11.10
2014,12,10,19,05,11.10
2014,12,10,19,06,11.10
2014,12,10,19,07,11.10
2014,12,10,19,08,11.10
2014,12,10,19,09,11.10
2014,12,10,19,10,11.10
2014,12,10,19,11,11.10
2014,12,10,19,12,11.10
2014,12,10,19,13,11.10
2014,12,10,19,14,11.10
2014,12,10,19,15,11.10
2014,12,10,19,16,11.10
2014,12,10,19,17,11.10
2014,12,10,19,18,11.10
2014,12,10,19,19,11.10
2014,12,10,19,20,11.10
2014,12,10,19,21,11.10
2014,12,10,19,22,11.10
2014,12,10,19,23,11.10
2014,12,10,19,24,11.10
2014,12,10,19,25,11.10
2014,12,10,19,26,11.10
2014,12,10,19,27,11.10
2014,12,10,19,28,11.10
2014,12,10,19,29,11.10
2014,12,10,19,30,11.10
2014,12,10,19,31,11.10
2014,12,10,19,32,11.20
2014,12,10,19,33,11.20
2014,12,10,19,34,11.20
2014,12,10,19,35,11.20
2014,12,10,19,36,11.20
2014,12,10,19,37,11.20
2014,12,10,19,38,11.20
2014,12,10,19,39,11.20
2014,12,10,19,40,11.20
2014,12,10,19,41,11.20
2014,12,10,19,42,11.10
2014,12,10,19,43,11.10
2014,12,10,19,44,11.10
2014,12,10,19,45,11.10
2014,12,10,19,46,11.10
2014,12,10,19,47,11.10
2014,12,10,19,48,11.10
2014,12,10,19,49,11.10
2014,12,10,19,50,11.10
2014,12,10,19,51,11.10
2014,12,10,19,52,11.20
2014,12,10,19,53,11.20
2014,12,10,19,54,11.20
2014,12,10,19,55,11.20
2014,12,10,19,56,11.20
2014,12,10,19,57,11.20
2014,12,10,19,58,11.20
2014,12,10,19,59,11.20
2014,12,10,20,00,11.20
2014,12,10,20,01,11.10
2014,12,10,20,02,11.10
2014,12,10,20,03,11.10
2014,12,10,20,04,11.10
2014,12,10,20,05,11.20
2014,12,10,20,06,11.20
2014,12,10,20,07,11.20
2014,12,10,20,08,11.20
2014,12,10,20,09,11.20
2014,12,10,20,10,11.20
2014,12,10,20,11,11.20
2014,12,10,20,12,11.20
2014,12,10,20,13,11.20
2014,12,10,20,14,11.20
2014,12,10,20,15,11.20
2014,12,10,20,16,11.20
2014,12,10,20,17,11.20
2014,12,10,20,18,11.20
2014,12,10,20,19,11.20
2014,12,10,20,20,11.20
2014,12,10,20,21,11.20
2014,12,10,20,22,11.20
2014,12,10,20,23,11.20
2014,12,10,20,24,11.20
2014,12,10,20,25,11.20
2014,12,10,20,26,11.20
2014,12,10,20,27,11.20
2014,12,10,20,28,11.20
2014,12,10,20,29,11.10
2014,12,10,20,30,11.10
2014,12,10,20,31,11.10
2014,12,10,20,32,11.10
2014,12,10,20,33,11.10
2014,12,10,20,34,11.10
2014,12,10,20,35,11.10
2014,12,10,20,36,11.10
2014,12,10,20,37,11.10
2014,12,10,20,38,11.10
2014,12,10,20,39,11.00
2014,12,10,20,40,11.00
2014,12,10,20,41,11.10
2014,12,10,20,42,11.10
2014,12,10,20,43,11.20
2014,12,10,20,44,11.20
2014,12,10,20,45,11.20
2014,12,10,20,46,11.20
2014,12,10,20,47,11.10
2014,12,10,20,48,11.10
2014,12,10,20,49,11.00
2014,12,10,20,50,11.00
2014,12,10,20,51,10.90
2014,12,10,20,52,10.80
2014,12,10,20,53,10.80
2014,12,10,20,54,10.80
2014,12,10,20,55,10.70
2014,12,10,20,56,10.70
2014,12,10,20,57,10.70
2014,12,10,20,58,10.60
2014,12,10,20,59,10.60
2014,12,10,21,00,10.60
2014,12,10,21,01,10.50
2014,12,10,21,02,10.50
2014,12,10,21,03,10.50
2014,12,10,21,04,10.50
2014,12,10,21,05,10.50
2014,12,10,21,06,10.40
2014,12,10,21,07,10.40
2014,12,10,21,08,10.40
2014,12,10,21,09,10.40
2014,12,10,21,10,10.40
2014,12,10,21,11,10.30
2014,12,10,21,12,10.30
2014,12,10,21,13,10.30
2014,12,10,21,14,10.30
2014,12,10,21,15,10.30
2014,12,10,21,16,10.30
2014,12,10,21,17,10.30
2014,12,10,21,18,10.30
2014,12,10,21,19,10.30
2014,12,10,21,20,10.30
2014,12,10,21,21,10.30
2014,12,10,21,22,10.30
2014,12,10,21,23,10.30
2014,12,10,21,24,10.30
2014,12,10,21,25,10.30
2014,12,10,21,26,10.30
2014,12,10,21,27,10.30
2014,12,10,21,28,10.30
2014,12,10,21,29,10.30
2014,12,10,21,30,10.30
2014,12,10,21,31,10.30
2014,12,10,21,32,10.30
2014,12,10,21,33,10.30
2014,12,10,21,34,10.30
2014,12,10,21,35,10.30
2014,12,10,21,36,10.30
2014,12,10,21,37,10.30
2014,12,10,21,38,10.30
2014,12,10,21,39,10.20
2014,12,10,21,40,10.20
2014,12,10,21,41,10.20
2014,12,10,21,42,10.20
2014,12,10,21,43,10.20
2014,12,10,21,44,10.20
2014,12,10,21,45,10.20
2014,12,10,21,46,10.20
2014,12,10,21,47,10.20
2014,12,10,21,48,10.20
2014,12,10,21,49,10.20
2014,12,10,21,50,10.20
2014,12,10,21,51,10.20
2014,12,10,21,52,10.20
2014,12,10,21,53,10.10
2014,12,10,21,54,10.10
2014,12,10,21,55,10.10
2014,12,10,21,56,10.10
2014,12,10,21,57,10.10
2014,12,10,21,58,10.10
2014,12,10,21,59,10.10
2014,12,10,22,00,10.10
2014,12,10,22,01,10.10
2014,12,10,22,02,10.10
2014,12,10,22,03,10.10
2014,12,10,22,04,10.10
2014,12,10,22,05,10.10
2014,12,10,22,06,10.10
2014,12,10,22,07,10.10
2014,12,10,22,08,10.10
2014,12,10,22,09,10.00
2014,12,10,22,10,10.10
2014,12,10,22,11,10.00
2014,12,10,22,12,10.00
2014,12,10,22,13,10.00
2014,12,10,22,14,10.00
2014,12,10,22,15,10.00
2014,12,10,22,16,10.00
2014,12,10,22,17,10.00
2014,12,10,22,18,10.00
2014,12,10,22,19,10.00
2014,12,10,22,20,10.00
2014,12,10,22,21,10.00
2014,12,10,22,22,10.00
2014,12,10,22,23,10.00
2014,12,10,22,24,10.00
2014,12,10,22,25,10.00
2014,12,10,22,26,9.90
2014,12,10,22,27,9.90
2014,12,10,22,28,9.90
2014,12,10,22,29,9.90
2014,12,10,22,30,9.90
2014,12,10,22,31,9.90
2014,12,10,22,32,9.90
2014,12,10,22,33,9.90
2014,12,10,22,34,9.90
2014,12,10,22,35,9.90
2014,12,10,22,36,9.90
2014,12,10,22,37,9.90
2014,12,10,22,38,9.90
2014,12,10,22,39,9.90
2014,12,10,22,40,9.90
2014,12,10,22,41,9.90
2014,12,10,22,42,9.90
2014,12,10,22,43,9.90
2014,12,10,22,44,9.90
2014,12,10,22,45,9.90
2014,12,10,22,46,10.00
2014,12,10,22,47,10.00
2014,12,10,22,48,10.00
2014,12,10,22,49,10.00
2014,12,10,22,50,10.00
2014,12,10,22,51,10.00
2014,12,10,22,52,10.00
2014,12,10,22,53,10.00
2014,12,10,22,54,9.90
2014,12,10,22,55,9.90
2014,12,10,22,56,9.90
2014,12,10,22,57,9.90
2014,12,10,22,58,9.90
2014,12,10,22,59,9.90
2014,12,10,23,00,9.90
2014,12,10,23,01,9.90
2014,12,10,23,02,9.90
2014,12,10,23,03,9.90
2014,12,10,23,04,9.90
2014,12,10,23,05,9.90
2014,12,10,23,06,9.90
2014,12,10,23,07,9.90
2014,12,10,23,08,9.90
2014,12,10,23,09,9.90
2014,12,10,23,10,9.90
2014,12,10,23,11,9.90
2014,12,10,23,12,9.90
2014,12,10,23,13,9.90